[Date Prev][Date Next][Thread Prev][Thread Next] - [Date Index][Thread Index][Author Index]

2 Line ISS Keps 7-6



ISS
1 25544U 98067A   02187.10809028  .00021817  00000-0  28398-3 0  6344
2 25544  51.6387 317.9927 0007993 326.2364  23.2134 15.58653323206974


----
Via the sarex mailing list at AMSAT.ORG courtesy of AMSAT-NA.
To unsubscribe, send "unsubscribe sarex" to Majordomo@amsat.org



AMSAT Top AMSAT Home